Dewpoint
53 54 55 56 55 58 59 60 60 60 59 58 58 58 59 59 58 58 56 54 51 51 49 46 45 45 43 43 44 43 42 40 42 37 36 38 39 39 38 38 37 36 35
53 54 55 57 56 56 58 59 59 58 58 58 58 58 58 56 56 55 55 53 51 49 48 46 44 45 43 44 44 44 41 41 41 35 34 29 32 36 37 37 36 38 37
53 54 54 56 56 56 57 58 58 58 58 58 57 54 53 53 53 54 52 50 49 47 46 46 45 45 44 43 44 43 41 38 39 39 31 25 21 28 34 37 36 38 37
54 54 54 55 56 56 58 58 58 58 58 58 57 56 55 53 54 53 50 49 49 46 45 45 46 45 44 44 43 41 41 38 32 36 36 37 32 23 23 32 35 37 36
53 53 54 55 56 57 58 59 58 58 58 58 58 57 56 56 54 52 50 49 49 47 44 45 45 45 44 44 43 41 40 39 38 33 34 34 34 35 31 24 28 34 34
51 52 53 54 54 57 58 59 58 57 57 57 57 56 55 53 52 52 49 48 48 46 45 43 44 45 43 41 40 40 39 39 37 35 35 33 30 28 31 30 31 31 33
50 49 49 51 52 54 57 58 57 57 57 57 57 56 55 54 53 52 50 48 46 45 44 44 43 42 42 42 41 39 37 38 36 37 36 37 36 37 36 36 32 29 29
46 47 47 49 52 54 55 57 57 57 57 57 57 57 55 55 53 50 50 49 46 44 44 43 42 43 43 41 41 38 39 38 38 39 39 36 35 35 34 31 31 28 26
41 43 45 49 51 53 55 57 57 56 57 57 58 58 57 56 53 51 51 49 47 44 43 43 44 43 43 41 40 39 38 38 39 39 38 36 34 35 34 34 34 34 30
41 41 43 48 51 53 54 57 57 56 57 57 58 58 57 56 54 52 50 48 45 43 44 43 43 44 41 41 40 37 37 37 37 36 37 35 34 34 34 34 34 34 32
45 45 47 50 53 55 55 57 57 57 57 58 58 57 57 55 52 51 49 46 45 44 42 44 44 41 41 39 38 37 37 36 36 36 35 35 35 34 34 34 34 32 31
46 48 51 54 55 56 56 57 57 57 58 58 57 56 53 50 49 47 45 46 44 45 45 42 41 41 39 39 37 36 35 36 35 35 35 34 30 34 34 32 32 30 29
47 50 52 53 55 56 57 57 56 57 55 52 50 49 47 46 46 46 46 46 44 44 43 42 40 41 41 37 36 36 36 35 34 34 34 32 32 32 32 32 30 28 25
45 48 51 53 54 55 55 55 54 52 48 48 48 47 46 46 46 46 45 45 44 41 41 43 42 40 37 35 35 35 35 35 34 35 34 32 32 32 31 28 28 27 25
36 46 48 52 52 52 50 49 49 49 48 47 46 46 46 46 45 44 43 43 43 43 42 39 37 37 37 34 35 34 35 34 34 34 31 32 32 32 30 26 26 25 22
45 45 45 49 50 48 47 46 47 47 47 46 46 45 44 43 42 43 42 41 38 37 37 38 37 37 35 34 34 34 34 33 32 31 30 30 31 30 32 32 30 25 23
44 44 45 46 47 46 46 46 45 45 44 44 43 41 41 40 39 37 37 39 41 41 41 40 38 36 35 35 35 35 33 32 32 32 30 28 26 29 27 28 29 30 28
41 41 41 41 41 41 41 42 40 40 39 37 36 36 37 39 40 41 41 42 41 40 37 35 34 33 31 33 34 34 34 34 33 33 32 31 30 29 28 27 25 25 25
34 35 36 36 36 37 38 36 35 34 35 37 38 39 40 39 40 40 40 38 34 33 32 31 32 32 32 33 33 33 33 33 32 32 32 31 30 30 30 28 27 25 26
32 31 32 33 33 33 34 35 35 36 37 38 38 39 41 40 37 34 32 32 31 29 30 29 30 31 31 32 33 32 33 34 33 32 31 31 30 30 29 31 31 29 26
29 29 30 29 29 32 34 35 36 36 37 37 32 31 29 29 29 30 29 29 29 30 32 31 32 31 31 31 32 32 32 34 33 32 31 32 30 31 31 31 32 32 28
27 28 28 28 30 32 31 29 28 28 28 28 28 28 29 28 28 30 30 30 29 30 29 33 30 29 29 30 30 31 32 31 32 32 33 33 31 31 32 31 31 30 28
27 28 28 29 29 28 29 28 28 27 28 29 29 28 26 25 24 23 22 21 21 23 24 24 26 26 27 27 29 30 31 30 32 32 31 31 32 32 31 31 31 30 30
29 27 27 27 28 29 28 28 29 28 26 24 23 22 21 19 19 18 18 19 22 23 23 23 23 24 23 25 27 28 29 28 29 30 31 30 32 32 32 31 32 32 32
26 26 28 28 27 26 24 23 22 22 21 21 19 19 19 19 17 17 19 21 23 24 23 23 23 26 25 23 23 24 26 29 29 30 31 31 31 31 31 30 30 30 31
26 28 27 24 22 22 21 20 21 19 18 16 17 19 19 19 17 17 18 21 22 23 23 21 23 23 21 21 21 23 23 27 30 29 30 30 32 31 30 30 29 28 28
Lifted_Index
-2 -2 -1 -1 -1 -1 -2 -2 -3 -3 -2 -0 1 1 -0 -1 -2 -1 -1 -0 0 1 1 1 2 5 7 8 8 9 9 9 10 8 8 9 10 12 12 12 12 12 12
-3 -2 -2 -1 -1 -1 -1 -2 -3 -3 -2 -1 0 0 -1 -1 -1 -1 -1 0 1 1 2 3 4 6 8 8 8 9 9 9 9 8 6 7 8 10 11 12 12 12 11
-3 -3 -2 -2 -1 -1 -1 -2 -2 -3 -2 -1 -1 -1 -1 -1 -1 -1 -0 1 2 2 3 5 6 8 8 8 8 9 8 8 8 7 7 6 7 9 10 11 11 11 11
-3 -3 -2 -2 -1 -1 -1 -1 -2 -3 -3 -2 -2 -1 -1 -1 -1 -1 -0 1 2 3 4 6 7 8 8 8 8 9 8 7 7 7 8 9 9 9 9 11 11 11 11
-3 -3 -3 -2 -1 -1 -1 -1 -2 -3 -3 -3 -2 -2 -1 -1 -1 -1 0 1 2 3 5 7 7 7 7 8 8 8 7 7 6 7 10 11 11 11 10 11 11 12 11
-3 -3 -3 -2 -2 -1 -1 -1 -2 -2 -2 -2 -2 -1 -1 -1 -1 -1 0 1 1 3 5 6 7 7 7 7 7 7 6 6 6 8 11 12 12 12 11 11 12 12 12
-2 -3 -3 -3 -2 -1 -1 -1 -2 -2 -2 -2 -2 -1 -1 -1 -1 -1 0 1 1 2 4 6 6 6 7 7 7 7 6 6 8 10 12 12 12 12 12 12 12 12 12
-1 -2 -2 -2 -2 -2 -1 -1 -1 -1 -1 -1 -1 -1 -1 -1 -1 -1 0 1 1 2 4 5 5 6 7 7 7 6 7 8 10 12 12 12 12 12 12 12 12 12 12
0 -0 -1 -2 -2 -2 -1 -1 -1 -1 -1 -1 -1 -1 -1 -1 -1 -1 -0 1 2 3 4 4 5 6 7 7 7 7 8 10 12 12 12 12 12 12 12 12 12 11 11
0 0 -0 -1 -1 -1 -1 -1 -1 -1 -1 -1 -1 -1 -1 -1 -1 -1 -0 1 2 3 3 4 4 5 6 7 7 8 10 12 12 12 12 12 12 12 12 12 11 11 10
0 -0 -0 -1 -1 -1 -1 -1 -1 -1 -1 -1 -1 -2 -1 -1 -1 -1 -0 0 2 3 3 4 4 5 7 8 9 10 12 12 12 12 12 12 12 12 11 11 11 10 10
-0 -0 -1 -1 -1 -2 -2 -2 -2 -2 -2 -2 -2 -2 -2 -1 -1 -1 -0 0 2 3 4 5 6 7 8 9 10 12 12 12 12 12 12 12 12 12 11 11 10 9 9
-0 -1 -1 -2 -2 -2 -2 -2 -2 -2 -3 -2 -2 -2 -1 -1 -1 -0 0 2 3 5 6 7 8 8 9 10 11 12 12 12 12 12 12 12 12 11 11 10 9 8 8
0 -1 -1 -2 -2 -3 -3 -3 -3 -3 -3 -2 -2 -1 -1 -0 0 1 2 4 5 7 8 9 9 9 9 11 12 12 12 12 12 12 12 12 11 11 10 10 8 8 7
0 -0 -1 -2 -3 -3 -3 -3 -3 -2 -2 -1 -1 -0 0 1 2 4 5 6 7 8 9 9 9 9 10 11 12 12 12 12 12 12 11 11 11 11 10 9 8 7 7
1 1 -0 -1 -2 -2 -2 -2 -2 -1 -1 -0 0 1 2 3 5 6 7 8 8 9 9 9 10 10 11 11 12 12 12 12 11 11 11 11 10 10 9 8 8 7 7
2 1 1 -0 -0 -1 -1 -1 -0 0 1 1 2 3 4 5 7 8 9 9 9 10 10 11 11 12 12 12 12 12 12 11 11 10 10 10 9 9 8 7 7 7 7
3 2 2 1 1 1 1 1 2 2 2 3 4 5 6 7 8 9 9 10 10 11 12 12 13 13 13 13 12 12 11 11 10 10 10 9 8 7 7 7 7 7 7
3 3 3 2 2 2 2 2 3 3 3 4 5 7 8 9 9 10 10 11 12 13 14 14 14 14 14 13 13 12 11 11 10 10 9 8 7 6 6 6 7 7 7
4 4 4 3 3 3 3 3 4 4 5 6 8 9 10 10 10 11 12 12 13 14 14 15 15 14 14 13 12 12 11 11 10 9 8 7 6 5 5 6 6 6 6
4 4 4 4 4 4 4 4 5 6 8 9 10 11 11 12 12 13 14 14 14 15 15 15 15 14 14 13 13 12 11 10 10 9 7 6 5 5 5 6 6 6 6
5 5 5 5 5 6 6 6 7 9 10 11 11 12 13 14 14 15 15 15 15 15 15 15 15 15 15 14 13 13 12 11 9 8 7 6 6 5 5 5 5 5 5
5 5 5 5 6 8 9 9 9 10 11 12 13 14 15 16 16 16 16 16 16 16 16 16 15 15 15 15 14 14 13 11 10 9 8 7 6 5 5 4 4 4 4
6 6 6 6 8 9 10 10 11 12 13 14 15 16 16 16 16 16 16 16 17 17 16 16 16 15 16 16 16 15 13 12 10 9 9 8 7 6 5 4 3 3 3
6 7 7 8 9 10 11 12 14 15 16 16 16 16 16 16 16 16 17 17 18 18 17 17 17 16 16 16 16 15 13 11 10 9 9 8 7 6 5 4 3 3 3
7 8 8 9 9 10 12 14 16 16 17 17 16 16 16 16 16 16 17 18 18 18 18 18 18 17 17 17 16 14 12 11 9 9 8 7 6 6 5 4 3 3 3